Location: Balagbag Mahabang Kahoy
(14.1562°N, 120.9200°E)
Time: 06:10:14
(UTC+00:00)

EPKM - Pass Details

Date: 16 January 2026
Orbit: 290 x 16620 km, 25.8° (Epoch: 15 February)

Event Time Altitude Azimuth Distance (km) Brightness Sun altitude
Exits shadow 20:55:49 50° 106° (ESE) 454 2.2 -21.2°
Drops below altitude 10° 20:57:23 10° 111° (ESE) 1,155 5.2 -20.8°
Sets 20:58:53 0° 112° (ESE) 1,933 6.7 -20.5°
